This is the latest recevied weather packets stored in our database for station/object IZ8QAD-4. If no packets are shown the sender has not sent any weather packets the latest 10 day(s).
| Time | Temp. | Humidity | Pressure | Rain* | Wind** | Luminosity | Snow |
|---|---|---|---|---|---|---|---|
| 1778080596 | 23.89° C | 35% | 966.2 hPa | - | - | - | - |
| 1778078796 | 23.89° C | 35% | 966 hPa | - | - | - | - |
| 1778076996 | 23.33° C | 36% | 965.9 hPa | - | - | - | - |
| 1778075199 | 23.33° C | 36% | 966 hPa | - | - | - | - |
| 1778073399 | 23.89° C | 36% | 966.2 hPa | - | - | - | - |
| 1778071598 | 23.89° C | 37% | 966.2 hPa | - | - | - | - |
| 1778069798 | 23.89° C | 37% | 966.4 hPa | - | - | - | - |
| 1778067998 | 23.89° C | 39% | 966.2 hPa | - | - | - | - |
| 1778066198 | 23.33° C | 41% | 966.3 hPa | - | - | - | - |
| 1778064398 | 23.33° C | 44% | 966.1 hPa | - | - | - | - |
| 1778062597 | 22.78° C | 41% | 966.5 hPa | - | - | - | - |
| 1778060797 | 22.22° C | 42% | 966.7 hPa | - | - | - | - |
| 1778058996 | 21.67° C | 42% | 966.8 hPa | - | - | - | - |
| 1778057196 | 21.67° C | 41% | 966.7 hPa | - | - | - | - |
| 1778055396 | 21.67° C | 41% | 966.9 hPa | - | - | - | - |
| 1778053597 | 22.22° C | 40% | 966.9 hPa | - | - | - | - |
| 1778051797 | 22.22° C | 39% | 966.8 hPa | - | - | - | - |
| 1778049997 | 22.22° C | 37% | 966.9 hPa | - | - | - | - |
| 1778048196 | 22.22° C | 38% | 967 hPa | - | - | - | - |
| 1778046396 | 22.78° C | 37% | 966.8 hPa | - | - | - | - |
| 1778044596 | 22.78° C | 37% | 967 hPa | - | - | - | - |
| 1778042796 | 22.78° C | 36% | 966.5 hPa | - | - | - | - |
| 1778040996 | 22.78° C | 36% | 966.4 hPa | - | - | - | - |
| 1778039195 | 22.78° C | 36% | 966.5 hPa | - | - | - | - |
| 1778037395 | 22.78° C | 36% | 966.6 hPa | - | - | - | - |
* Rain since midnight (hover to see other rain measurements)
** Current wind speed in m/s (hover to see current wind gust speed)